Location: Grand Rapids
(42.9630°N, 85.6680°W)
Time: 02:42:52
(UTC-04:00)

S-56A Canister/Altair - All Passes

Search period start: 30 May 2024 00:00
Search period end: 09 June 2024 00:00
Orbit: 638 x 2488 km, 38.9° (Epoch: 29 May)

Date Brightness Start Highest point End Pass type
(mag) Time Alt. Az. Time Alt. Az. Time Alt. Az.
30 May - 02:30:30 10° SSE 02:39:13 18° SE 02:47:41 10° E visible
30 May - 04:30:04 10° SW 04:43:49 45° SSE 04:55:36 10° E visible
30 May - 06:34:56 10° WSW 06:49:30 68° SSE 07:00:19 10° E daylight
30 May - 08:41:55 10° W 08:55:06 70° S 09:04:01 10° ESE daylight
30 May - 10:49:16 10° W 10:59:19 41° SSW 11:06:14 10° SE daylight
31 May - 01:57:53 10° SSE 02:05:12 16° SE 02:12:27 10° E visible
31 May - 03:56:07 10° SSW 04:09:32 41° SSE 04:21:34 10° E visible
31 May - 06:00:26 10° WSW 06:15:12 67° SSE 06:26:38 10° E daylight
31 May - 08:07:13 10° W 08:21:01 72° S 08:30:35 10° ESE daylight
31 May - 10:14:34 10° W 10:25:38 46° SSW 10:33:09 10° SE daylight
31 May - 12:23:52 10° W 12:28:05 14° SW 12:31:41 10° SSW daylight
01 Jun - 01:26:01 10° SSE 01:31:14 13° SE 01:36:29 10° ESE visible
01 Jun - 03:22:17 10° SSW 03:35:17 38° SE 03:47:25 10° E visible
01 Jun - 05:26:01 10° WSW 05:40:50 65° SSE 05:52:52 10° E visible
01 Jun - 07:32:32 10° W 07:46:51 74° S 07:57:04 10° ESE daylight
01 Jun - 09:39:51 10° W 09:51:50 52° SSW 10:00:01 10° SE daylight
01 Jun - 11:48:26 10° W 11:54:41 18° SW 11:59:41 10° S daylight
02 Jun - 02:48:37 10° SSW 03:01:02 35° SE 03:13:08 10° E visible
02 Jun - 04:51:41 10° SW 05:06:26 62° SSE 05:19:01 10° E visible
02 Jun - 06:57:52 10° W 07:12:36 74° S 07:23:29 10° E daylight
02 Jun - 09:05:08 10° W 09:17:56 57° SSW 09:26:45 10° SE daylight
02 Jun - 11:13:18 10° W 11:21:12 23° SW 11:27:14 10° S daylight
03 Jun - 02:15:06 10° SSW 02:26:50 31° SE 02:38:41 10° E visible
03 Jun - 04:17:28 10° SW 04:32:02 59° SSE 04:45:03 10° E visible
03 Jun - 06:23:16 10° W 06:38:15 75° S 06:49:49 10° E daylight
03 Jun - 08:30:24 10° W 08:43:56 61° SSW 08:53:24 10° ESE daylight
03 Jun - 10:38:18 10° W 10:47:37 28° SW 10:54:32 10° SSE daylight
04 Jun - 01:41:47 10° S 01:52:42 28° SE 02:04:04 10° E visible
04 Jun - 03:43:23 10° SW 03:57:37 56° SSE 04:11:00 10° E visible
04 Jun - 05:48:44 10° WSW 06:03:50 74° S 06:16:03 10° E daylight
04 Jun - 07:55:42 10° W 08:09:49 65° SSW 08:19:59 10° ESE daylight
04 Jun - 10:03:23 10° W 10:13:57 33° SW 10:21:41 10° SSE daylight
05 Jun - 01:08:41 10° S 01:18:38 24° SE 01:29:13 10° E visible
05 Jun - 03:09:24 10° SW 03:23:13 53° SSE 03:36:50 10° E visible
05 Jun - 05:14:17 10° WSW 05:29:22 74° S 05:42:12 10° E visible
05 Jun - 07:21:01 10° W 07:35:36 69° SSW 07:46:27 10° ESE daylight
05 Jun - 09:28:32 10° W 09:40:11 39° SW 09:48:40 10° SSE daylight
06 Jun - 00:35:50 10° S 00:44:37 20° SE 00:54:07 10° E visible
06 Jun - 02:35:34 10° SW 02:48:51 49° SSE 03:02:33 10° E visible
06 Jun - 04:39:55 10° WSW 04:54:52 72° S 05:08:15 10° E visible
06 Jun - 06:46:23 10° W 07:01:18 71° SSW 07:12:50 10° ESE daylight
06 Jun - 08:53:43 10° W 09:06:18 44° SW 09:15:31 10° SSE daylight
06 Jun - 11:04:12 10° W 11:08:57 13° SW 11:13:06 10° SSW daylight
07 Jun - 00:03:22 10° SSE 00:10:43 17° SE 00:18:40 10° E visible
07 Jun - 02:01:52 10° SSW 02:14:32 45° SE 02:28:10 10° E visible
07 Jun - 04:05:40 10° WSW 04:20:21 70° SSE 04:34:13 10° E visible
07 Jun - 06:11:49 10° W 06:26:54 73° S 06:39:06 10° ESE daylight
07 Jun - 08:18:57 10° W 08:32:19 49° SSW 08:42:16 10° SE daylight
07 Jun - 10:28:18 10° W 10:35:23 18° SW 10:41:17 10° SSW daylight
07 Jun - 23:31:31 10° SSE 23:36:52 13° SE 23:42:35 10° E visible
08 Jun - 01:28:18 10° SSW 01:40:17 41° SE 01:53:40 10° E visible
08 Jun - 03:31:31 10° WSW 03:45:50 68° SSE 04:00:04 10° E visible
08 Jun - 05:37:19 10° W 05:52:27 75° S 06:05:17 10° ESE daylight
08 Jun - 07:44:13 10° W 07:58:14 54° SSW 08:08:53 10° SE daylight
08 Jun - 09:52:52 10° W 10:01:45 22° SW 10:08:54 10° S daylight
08 Jun - 23:02:35 10° SE 23:03:06 10° ESE 23:03:37 10° ESE visible
